[[{"header":{"parameterUnit":"m.s-1","parameterCategory":2,"la1":30.2991,"la2":30.254,"lo1":-89.0895,"lo2":-89.0444,"dy":0.0017,"dx":0.0017,"nx":28,"ny":28,"refTime":"2024-09-02T09:00:00:Z","depth":"0","parameterNumber":2,"parameterNumberName":"U-component_of_CURRENTS"},"data":[0,0,0,0,0,0,0,0,0,0,0,0,0,0,0,0,0,0,0,0,0,0,0,0,0,0,0,0,0,0,0,0,0,0,0,0,0,0,0,0,0,0,0,0,0,0,0,0,0,0,0,0,0,0,0,0,0,0,0.1683,0.1684,0,0.1686,0.1686,0.1685,0.166,0.166,0.166,0.1659,0.1675,0.1675,0.1676,0,0,0,0,0,0,0,0,0,0,0,0,0,0.1652,0.1653,0.1683,0.1684,0.1684,0.1686,0.1686,0.1685,0.166,0.166,0.1659,0.1659,0.1674,0.1675,0.1676,0,0,0,0,0,0,0,0,0,0,0,0,0,0.1658,0.1653,0.1683,0.1675,0.1674,0.1686,0.1686,0.1685,0.166,0.166,0.1659,0.1659,0.1674,0.1675,0.1676,0.1693,0,0,0.168,0.168,0,0,0,0,0,0,0,0,0.1657,0.1658,0.1676,0.1675,0.1675,0.1676,0.168,0.169,0.1661,0.1662,0.1659,0.1659,0.1679,0.168,0.1676,0.1694,0.1694,0.168,0.168,0.1681,0.1681,0,0,0,0,0,0,0,0.1657,0.1658,0.168,0.1676,0.1676,0.167,0.1669,0.1682,0.167,0.1661,0.1661,0.1667,0.1678,0.1675,0.1676,0.1695,0.168,0.1681,0.1681,0.1682,0.1806,0.1809,0,0,0,0,0,0,0.1666,0.1658,0.168,0.1681,0.1669,0.1671,0.167,0.1673,0.167,0.167,0.1668,0.1666,0.1673,0.1675,0.1676,0.1747,0.1681,0.1682,0.1682,0.1803,0.1807,0.1809,0,0,0,0,0,0,0.1665,0.1667,0.168,0.1673,0.1674,0.1672,0.1675,0.1673,0.167,0.1675,0.1675,0.1667,0.1673,0.1675,0.1693,0.1746,0.1682,0.1683,0.18,0.1804,0.1808,0.1857,0,0,0,0,0,0,0.1664,0.1667,0.1668,0.1673,0.1675,0.1687,0.1676,0.1674,0.1677,0.1674,0.1675,0.1675,0.1672,0.1692,0.1694,0.1746,0.1684,0.1797,0.1802,0.1807,0.1852,0.1862,0.1871,0,0,0,0,0,0.1662,0.1676,0.1668,0.1671,0.1678,0.1687,0.1687,0.1681,0.1677,0.1676,0.1682,0.1675,0.1727,0.1693,0.1696,0.175,0.1795,0.1801,0.1806,0.1848,0.186,0.1871,0,0,0,0,0,0,0.1669,0.1675,0.1667,0.1682,0.1682,0.1685,0.1691,0.1685,0.1688,0.1688,0.1687,0.1689,0.1735,0.1735,0.1699,0.1806,0.1769,0.1776,0.18,0.1811,0.1821,0.1863,0.1685,0,0,0,0,0,0.167,0.1679,0.168,0.1692,0.1693,0.169,0.1693,0.1688,0.1694,0.1694,0.1694,0.1718,0.1764,0.1776,0.1801,0.1841,0.1877,0.1888,0.1897,0.1905,0.1945,0.2083,0.2109,0.1829,0.1829,0.1829,0,0,0.1678,0.1683,0.1688,0.1693,0.1694,0.1704,0.169,0.1698,0.1717,0.1698,0.172,0.1742,0.1782,0.1835,0.1858,0.1838,0.1986,0.1912,0.1918,0.1956,0.2092,0.2119,0.2144,0.1833,0.1832,0.1832,0,0,0.1701,0.17,0.1711,0.1716,0.172,0.1718,0.1721,0.172,0.1728,0.175,0.1767,0.1834,0.1847,0.1919,0.1954,0.2037,0.2033,0.2027,0.2107,0.2238,0.2263,0.2285,0.2286,0.2309,0.2031,0.2031,0.2031,0,0.171,0.1718,0.1716,0.1732,0.1741,0.1727,0.1741,0.1756,0.1761,0.1802,0.1764,0.1897,0.1914,0.2056,0.2077,0.2066,0.2082,0.2051,0.2252,0.2276,0.2298,0.2294,0.2318,0.2034,0.2034,0.2034,0.2033,0,0.1736,0.1745,0.1757,0.1767,0.1778,0.1787,0.1805,0.1826,0.1831,0.1863,0.1978,0.2019,0.2117,0.213,0.2119,0.2295,0.223,0.2246,0.2221,0.2329,0.2317,0.2341,0.2039,0.2038,0.2037,0.2036,0,0,0.1755,0.1767,0.1773,0.1784,0.1794,0.181,0.1859,0.1916,0.1982,0.2019,0.2123,0.2232,0.2275,0.2322,0.2344,0.2445,0.2575,0.2399,0.2404,0.2393,0.2767,0.2652,0.2666,0.2616,0.2622,0.2628,0.2665,0,0.1771,0.1797,0.1802,0.1836,0.185,0.1871,0.1926,0.199,0.2035,0.2127,0.2245,0.2333,0.2343,0.2382,0.251,0.2548,0.2654,0.2557,0.2672,0.2674,0.2558,0.2699,0.2614,0.2638,0.2689,0.2693,0.2695,0,0.1796,0.1807,0.1829,0.188,0.1892,0.1917,0.2014,0.206,0.2202,0.2245,0.2393,0.2448,0.261,0.2592,0.2801,0.2724,0.2777,0.2806,0.2809,0.2721,0.2611,0.2557,0.268,0.2615,0.2733,0.273,0.2727,0,0.1808,0.184,0.1853,0.1865,0.1914,0.1955,0.1992,0.211,0.2164,0.232,0.2365,0.258,0.2643,0.2803,0.286,0.2838,0.3043,0.3025,0.2984,0.2969,0.2936,0.2909,0.3022,0.3241,0.3241,0.3241,0.324,0,0.1826,0.185,0.1861,0.1873,0.1928,0.1967,0.205,0.2124,0.2231,0.2308,0.2431,0.2517,0.2704,0.2819,0.2904,0.2995,0.3101,0.3038,0.3021,0.2935,0.291,0.2881,0.2806,0.3242,0.3241,0.3241,0.3241,0,0.185,0.1846,0.1876,0.1915,0.1929,0.1976,0.2039,0.2104,0.2191,0.2286,0.2323,0.2479,0.2613,0.2761,0.2963,0.3005,0.3032,0.3139,0.2948,0.2911,0.2784,0.2711,0.2706,0.2631,0.31,0.3098,0.3097,0,0.1862,0.187,0.1895,0.1903,0.1916,0.1969,0.2005,0.2085,0.2127,0.2255,0.2291,0.2433,0.2535,0.274,0.2874,0.301,0.2961,0.2968,0.2965,0.2806,0.2715,0.2601,0.2531,0.2896,0.2893,0.289,0.2888,0,0.1885,0.1887,0.1901,0.1908,0.1927,0.1949,0.1988,0.2008,0.2093,0.2152,0.2227,0.231,0.2502,0.2608,0.276,0.2845,0.2798,0.2915,0.2875,0.2684,0.2454,0.2359,0.2736,0.2866,0.2868,0.2869,0.2871,0.2872,0.1897,0.1906,0.19,0.191,0.1919,0.1901,0.19,0.193,0.1965,0.2024,0.2135,0.2222,0.239,0.2601,0.2652,0.2661,0.2645,0.2635,0.2585,0.2503,0.2383,0.2634,0.2671,0.2672,0.2673,0.2674,0.2674,0,0.1883,0.1882,0.1896,0.1872,0.1848,0.1868,0.1862,0.1834,0.183,0.1942,0.2003,0.214,0.2235,0.2361,0.2442,0.2377,0.2318,0.231,0.219,0.2161,0.2525,0.2472,0.2317,0.2317,0.2317,0.2317,0.2317,0.2317,0.187,0.1858,0.1854,0.179,0.1773,0.1704,0.1684,0.1654,0.1696,0.1744,0.1818,0.193,0.208,0.2182,0.2167,0.2129,0.1994,0.1883,0.187,0.2175,0.2204,0.2231,0.2172,0.1956,0.1956,0.1486,0.1482,0.1478]},{"header":{"parameterUnit":"m.s-1","parameterCategory":2,"la1":30.2991,"la2":30.254,"lo1":-89.0895,"lo2":-89.0444,"dy":0.0017,"dx":0.0017,"nx":28,"ny":28,"refTime":"2024-09-02T09:00:00:Z","depth":"0","parameterNumber":3,"parameterNumberName":"V-component_of_CURRENTS"},"data":[0,0,0,0,0,0,0,0,0,0,0,0,0,0,0,0,0,0,0,0,0,0,0,0,0,0,0,0,0,0,0,0,0,0,0,0,0,0,0,0,0,0,0,0,0,0,0,0,0,0,0,0,0,0,0,0,0,0,0.0102,0.0101,0,0.0024,0.0023,0.0022,-0.0033,-0.0033,-0.0033,-0.0033,-0.0038,-0.0038,-0.0038,0,0,0,0,0,0,0,0,0,0,0,0,0,0.0155,0.0155,0.0102,0.0101,0.01,0.0024,0.0023,0.0021,-0.0033,-0.0033,-0.0033,-0.0034,-0.0038,-0.0038,-0.0038,0,0,0,0,0,0,0,0,0,0,0,0,0,0.0109,0.0155,0.0102,0.0065,0.0062,0.0024,0.0023,0.0021,-0.0033,-0.0033,-0.0033,-0.0034,-0.0039,-0.0038,-0.0038,-0.003,0,0,-0.0038,-0.0038,0,0,0,0,0,0,0,0,0.0112,0.0107,0.0072,0.0068,0.0063,0.0006,0.0039,0.0008,-0.0032,0.0001,-0.0033,-0.0034,-0.0015,-0.0017,-0.0034,-0.003,-0.003,-0.0038,-0.0038,-0.0038,-0.0038,0,0,0,0,0,0,0,0.0115,0.0109,0.0069,0.0071,0.0066,0.0036,0.0029,0.0033,-0.0004,-0.0002,-0.0005,-0.0011,-0.0017,-0.0035,-0.0035,-0.003,-0.0038,-0.0038,-0.0038,-0.0037,0.0109,0.0112,0,0,0,0,0,0,0.0131,0.0113,0.0072,0.0067,0.0089,0.0036,0.0028,0.0024,-0.0006,-0.0011,-0.0011,-0.0013,-0.0035,-0.0035,-0.0035,0.0076,-0.0038,-0.0037,-0.0037,0.0105,0.0109,0.0113,0,0,0,0,0,0,0.0132,0.0128,0.0075,0.0089,0.0081,0.0036,0.0031,0.0022,0.0008,-0.0013,-0.0017,-0.0015,-0.0035,-0.0035,-0.0006,0.0071,-0.0037,-0.0037,0.01,0.0106,0.0111,0.0232,0,0,0,0,0,0,0.0134,0.0129,0.0131,0.0091,0.0081,0.0063,0.0031,0.0021,0.0006,0.0002,-0.0018,-0.002,-0.0035,-0.0006,-0.0006,0.007,-0.0037,0.0096,0.0103,0.011,0.0224,0.0241,0.0257,0,0,0,0,0,0.0137,0.0143,0.0132,0.0127,0.0085,0.0064,0.0056,0.0021,0.0006,0.0006,0.0008,-0.0019,0.0041,-0.0004,-0.0004,0.0073,0.0092,0.0101,0.0109,0.0216,0.0238,0.0256,0,0,0,0,0,0,0.0162,0.0137,0.0124,0.0121,0.01,0.0056,0.0051,0.0029,0.0025,0.0026,0.0006,0.0006,0.007,0.0054,0.0006,0.0142,0.0072,0.0081,0.0154,0.0174,0.019,0.0245,-0.0037,0,0,0,0,0,0.0172,0.0174,0.0142,0.0141,0.0133,0.0095,0.0082,0.006,0.0048,0.0043,0.0033,0.0052,0.0105,0.0121,0.0141,0.0197,0.0184,0.0256,0.0273,0.0287,0.0335,0.0393,0.0419,0.0141,0.0141,0.0141,0,0,0.018,0.0168,0.0167,0.0147,0.0127,0.0138,0.0086,0.0073,0.0106,0.0048,0.009,0.0098,0.0132,0.0206,0.0236,0.0201,0.0348,0.0298,0.0309,0.0351,0.0404,0.0431,0.0455,0.0147,0.0146,0.0145,0,0,0.0203,0.019,0.02,0.0192,0.0173,0.0164,0.0167,0.0133,0.0144,0.0174,0.0177,0.0244,0.0258,0.0333,0.0371,0.0496,0.0431,0.049,0.0619,0.0673,0.0696,0.0717,0.0676,0.0692,0.0501,0.0501,0.0501,0,0.0216,0.023,0.02,0.0212,0.0227,0.0187,0.0218,0.0228,0.0212,0.0273,0.0206,0.0346,0.0346,0.0527,0.0565,0.0541,0.0511,0.0532,0.0694,0.0715,0.0733,0.0687,0.0703,0.0508,0.0507,0.0506,0.0506,0,0.0249,0.0265,0.0273,0.0293,0.0305,0.032,0.0336,0.037,0.0376,0.0406,0.0544,0.0553,0.0654,0.0666,0.0646,0.0817,0.0726,0.07,0.0637,0.0768,0.071,0.0724,0.0518,0.0515,0.0513,0.0512,0,0,0.0274,0.0295,0.0302,0.0345,0.0354,0.0381,0.0464,0.0561,0.0673,0.0672,0.0824,0.0915,0.0925,0.0973,0.0971,0.1016,0.1084,0.0911,0.091,0.0859,0.1124,0.0987,0.0987,0.1064,0.1069,0.1073,0.1006,0,0.0318,0.0377,0.0378,0.0468,0.051,0.0536,0.0638,0.0726,0.0794,0.0921,0.0998,0.1114,0.1044,0.1093,0.1144,0.1105,0.1138,0.11,0.1018,0.1015,0.087,0.1009,0.0946,0.0877,0.102,0.1022,0.1024,0,0.0358,0.0402,0.0484,0.0606,0.0633,0.0691,0.0884,0.0965,0.1143,0.12,0.1333,0.1354,0.1471,0.1361,0.1395,0.1357,0.1273,0.1215,0.1211,0.1068,0.091,0.0785,0.0897,0.0744,0.1045,0.1043,0.1042,0,0.0416,0.0495,0.058,0.0605,0.0719,0.0806,0.0893,0.1065,0.1188,0.1377,0.146,0.1593,0.163,0.1601,0.146,0.1431,0.1429,0.1374,0.1181,0.1164,0.1096,0.1067,0.1057,0.1426,0.1426,0.1426,0.1426,0,0.0477,0.0551,0.0618,0.0665,0.083,0.0881,0.109,0.1201,0.138,0.1545,0.1604,0.172,0.1686,0.1661,0.1539,0.1387,0.1491,0.1245,0.1179,0.1126,0.1102,0.095,0.0887,0.1423,0.1424,0.1424,0.1425,0,0.053,0.0558,0.0672,0.0797,0.0852,0.0974,0.1173,0.1328,0.1462,0.1664,0.1716,0.1818,0.1772,0.1682,0.1601,0.1459,0.1242,0.1259,0.1143,0.1068,0.0741,0.0687,0.065,0.0584,0.1064,0.1061,0.1058,0,0.0565,0.0617,0.0758,0.0839,0.0898,0.1071,0.1201,0.1366,0.1506,0.1713,0.1801,0.1827,0.1851,0.1656,0.1432,0.1211,0.1121,0.0992,0.0972,0.0756,0.065,0.063,0.0578,0.0893,0.0889,0.0886,0.0884,0,0.0641,0.0678,0.077,0.0917,0.1046,0.1208,0.1379,0.1491,0.1674,0.1807,0.1928,0.1955,0.1774,0.1545,0.1233,0.1074,0.0877,0.0917,0.0781,0.0612,0.0515,0.0404,0.0825,0.0856,0.0859,0.0861,0.0862,0.0864,0.0697,0.077,0.0867,0.1015,0.1154,0.1301,0.1424,0.1566,0.1742,0.1902,0.1949,0.196,0.1655,0.1231,0.1011,0.0555,0.0641,0.0425,0.0397,0.0409,0.0323,0.063,0.0533,0.0534,0.0535,0.0536,0.0536,0,0.0754,0.0826,0.0962,0.1114,0.1241,0.1312,0.1515,0.1605,0.1743,0.1868,0.1939,0.174,0.1349,0.098,0.0395,0.0099,0.0053,-0.0041,-0.0044,-0.0056,0.0286,0.0252,-0.0013,-0.0013,-0.0013,-0.0013,-0.0012,-0.0012,0.0786,0.0895,0.0954,0.1139,0.1243,0.1391,0.1488,0.1601,0.1705,0.1763,0.1733,0.1709,0.1379,0.0482,-0.0164,-0.0298,-0.0424,-0.0484,-0.0522,-0.0283,-0.024,-0.0199,-0.0245,-0.0609,-0.061,-0.0844,-0.0847,-0.0849]}],[{"header":{"parameterUnit":"m.s-1","parameterCategory":2,"la1":30.2991,"la2":30.254,"lo1":-89.0895,"lo2":-89.0444,"dy":0.0017,"dx":0.0017,"nx":28,"ny":28,"refTime":"2024-09-02T09:00:00:Z","depth":"2","parameterNumber":2,"parameterNumberName":"U-component_of_CURRENTS"},"data":[0,0,0,0,0,0,0,0,0,0,0,0,0,0,0,0,0,0,0,0,0,0,0,0,0,0,0,0,0,0,0,0,0,0,0,0,0,0,0,0,0,0,0,0,0,0,0,0,0,0,0,0,0,0,0,0,0,0,0.1638,0.1638,0,0.1683,0.1684,0.1684,0.1682,0.1682,0.1682,0.1682,0.1722,0.1724,0.1725,0,0,0,0,0,0,0,0,0,0,0,0,0,0.1572,0.1573,0.1638,0.1638,0.1639,0.1683,0.1684,0.1684,0.1683,0.1682,0.1682,0.1681,0.1722,0.1723,0.1725,0,0,0,0,0,0,0,0,0,0,0,0,0,0.1604,0.1573,0.1637,0.1647,0.1648,0.1683,0.1684,0.1684,0.1683,0.1682,0.1682,0.1681,0.1721,0.1723,0.1725,0.1747,0,0,0.1732,0.1732,0,0,0,0,0,0,0,0,0.1602,0.1606,0.1644,0.1646,0.1648,0.168,0.1676,0.1706,0.1683,0.1666,0.1682,0.1681,0.171,0.1713,0.1718,0.1749,0.1751,0.1732,0.1733,0.1734,0.1734,0,0,0,0,0,0,0,0.16,0.1604,0.1652,0.1645,0.1648,0.1657,0.166,0.1681,0.1687,0.1667,0.1668,0.1679,0.171,0.1716,0.1719,0.1752,0.1732,0.1734,0.1735,0.1736,0.1869,0.1871,0,0,0,0,0,0,0.1601,0.1602,0.1651,0.1654,0.1627,0.1658,0.1662,0.1667,0.1687,0.1691,0.1679,0.1679,0.1713,0.1716,0.172,0.1805,0.1734,0.1736,0.1737,0.1867,0.1869,0.1872,0,0,0,0,0,0,0.1599,0.1605,0.1649,0.1632,0.1639,0.166,0.1666,0.1668,0.1679,0.1697,0.17,0.1688,0.1712,0.1717,0.1753,0.1804,0.1737,0.1739,0.1864,0.1868,0.1871,0.1937,0,0,0,0,0,0,0.1597,0.1603,0.1607,0.1632,0.164,0.167,0.1667,0.167,0.1687,0.1687,0.1705,0.1708,0.1712,0.175,0.1756,0.1806,0.174,0.1861,0.1866,0.187,0.1932,0.1943,0.1952,0,0,0,0,0,0.1594,0.1605,0.1606,0.1613,0.1644,0.167,0.1675,0.1686,0.1688,0.1693,0.1716,0.1708,0.1782,0.1754,0.1759,0.1811,0.1859,0.1864,0.1869,0.1928,0.1941,0.1951,0,0,0,0,0,0,0.1582,0.1608,0.1609,0.1627,0.1646,0.1671,0.1681,0.1692,0.1713,0.1712,0.1728,0.1733,0.1787,0.1789,0.1757,0.1864,0.1824,0.183,0.1867,0.1879,0.1888,0.1903,0.1742,0,0,0,0,0,0.1581,0.1592,0.1617,0.1632,0.164,0.1661,0.1674,0.1681,0.1705,0.1713,0.1737,0.1768,0.1813,0.1835,0.1861,0.1913,0.1904,0.1955,0.1965,0.1973,0.199,0.2046,0.2062,0.1889,0.1889,0.1889,0,0,0.1586,0.1597,0.1608,0.1629,0.1643,0.1674,0.1666,0.1685,0.1721,0.1716,0.1771,0.1796,0.1833,0.1895,0.1921,0.1904,0.2005,0.1979,0.1986,0.1999,0.2053,0.207,0.2085,0.1893,0.1892,0.1891,0,0,0.1599,0.1605,0.1618,0.1641,0.1661,0.1677,0.1686,0.1717,0.1735,0.1787,0.1807,0.1871,0.1916,0.1973,0.2005,0.2087,0.2051,0.2088,0.2155,0.221,0.2224,0.2237,0.219,0.2198,0.2098,0.2098,0.2099,0,0.1602,0.1625,0.1627,0.1652,0.1683,0.1685,0.1721,0.1744,0.1788,0.1825,0.181,0.1935,0.1968,0.2076,0.2114,0.2113,0.2093,0.2105,0.2222,0.2235,0.2247,0.2196,0.2204,0.2102,0.2102,0.2101,0.2101,0,0.1628,0.1655,0.1668,0.1703,0.1732,0.176,0.1798,0.1828,0.1854,0.1893,0.1986,0.2034,0.2114,0.2144,0.2159,0.2275,0.221,0.222,0.2188,0.2268,0.2208,0.2216,0.2108,0.2106,0.2105,0.2104,0,0,0.163,0.1676,0.1688,0.1718,0.1765,0.1795,0.1853,0.192,0.1981,0.2022,0.2108,0.2214,0.2234,0.2273,0.2301,0.2364,0.2426,0.2333,0.2334,0.2277,0.2465,0.2324,0.2317,0.2451,0.2454,0.2457,0.2366,0,0.1655,0.1707,0.1733,0.1808,0.1841,0.188,0.1943,0.2004,0.206,0.2138,0.2197,0.2285,0.2282,0.2331,0.2393,0.2421,0.2458,0.2445,0.2404,0.2402,0.2263,0.2328,0.2202,0.2105,0.2373,0.2374,0.2375,0,0.1676,0.1714,0.1778,0.1865,0.1887,0.1942,0.2051,0.2104,0.2204,0.225,0.2332,0.2365,0.2458,0.2449,0.2514,0.2495,0.2496,0.2504,0.2501,0.2361,0.2279,0.2082,0.2108,0.2387,0.2386,0.2385,0.2384,0,0.1669,0.1753,0.1804,0.1837,0.1928,0.1985,0.2043,0.2148,0.2207,0.2323,0.2374,0.2461,0.2499,0.2535,0.2535,0.2534,0.2572,0.2568,0.2428,0.2413,0.2296,0.2266,0.2637,0.2637,0.2637,0.2638,0.2638,0,0.1686,0.1749,0.1812,0.1849,0.194,0.1999,0.2104,0.2181,0.228,0.2348,0.2427,0.2478,0.2534,0.2547,0.2545,0.2477,0.257,0.2444,0.2408,0.2306,0.2279,0.2533,0.2522,0.2634,0.2635,0.2636,0.2636,0,0.1699,0.1728,0.1793,0.1889,0.1933,0.1999,0.2126,0.2196,0.229,0.2374,0.2407,0.2491,0.2487,0.2495,0.2529,0.2465,0.2443,0.2405,0.2223,0.2168,0.2229,0.2223,0.2221,0.2216,0.2212,0.2208,0.2205,0,0.1717,0.1736,0.1816,0.1852,0.1911,0.201,0.2077,0.2191,0.2255,0.2364,0.2393,0.2428,0.2374,0.2317,0.2298,0.2216,0.2323,0.2036,0.2045,0.2235,0.22,0.22,0.22,0.1884,0.1879,0.1875,0.1871,0,0.1753,0.1757,0.1806,0.1866,0.1935,0.1999,0.2101,0.2128,0.2228,0.2246,0.2239,0.2191,0.2177,0.2027,0.1956,0.1915,0.2033,0.1937,0.2235,0.2006,0.191,0.1878,0.189,0.1832,0.1835,0.1838,0.184,0.1842,0.1772,0.1799,0.1823,0.1877,0.1941,0.1953,0.196,0.1994,0.1981,0.195,0.2013,0.1888,0.1893,0.1693,0.1629,0.1632,0.1757,0.1688,0.1706,0.1727,0.1702,0.1605,0.1457,0.1459,0.146,0.1462,0.1463,0,0.1779,0.1807,0.1842,0.186,0.1853,0.1928,0.1952,0.1864,0.1739,0.1738,0.1652,0.1465,0.1342,0.1393,0.1335,0.129,0.1333,0.1237,0.131,0.1349,0.1384,0.1346,0.1004,0.1002,0.1001,0.0999,0,0,0.1783,0.1794,0.1784,0.1743,0.1765,0.1737,0.1707,0.1547,0.1496,0.1285,0.1235,0.1284,0.1332,0.1158,0.1126,0.1063,0.1202,0.1022,0.1394,0.152,0.1553,0.1646,0.1629,0,0,0,0,0]},{"header":{"parameterUnit":"m.s-1","parameterCategory":2,"la1":30.2991,"la2":30.254,"lo1":-89.0895,"lo2":-89.0444,"dy":0.0017,"dx":0.0017,"nx":28,"ny":28,"refTime":"2024-09-02T09:00:00:Z","depth":"2","parameterNumber":3,"parameterNumberName":"V-component_of_CURRENTS"},"data":[0,0,0,0,0,0,0,0,0,0,0,0,0,0,0,0,0,0,0,0,0,0,0,0,0,0,0,0,0,0,0,0,0,0,0,0,0,0,0,0,0,0,0,0,0,0,0,0,0,0,0,0,0,0,0,0,0,0,-0.0005,-0.0005,0,-0.0073,-0.0074,-0.0075,-0.012,-0.012,-0.012,-0.012,-0.015,-0.0151,-0.0152,0,0,0,0,0,0,0,0,0,0,0,0,0,0.0035,0.0034,-0.0005,-0.0005,-0.0006,-0.0073,-0.0074,-0.0075,-0.012,-0.012,-0.012,-0.012,-0.015,-0.0151,-0.0152,0,0,0,0,0,0,0,0,0,0,0,0,0,-0.0004,0.0034,-0.0005,-0.0035,-0.0038,-0.0072,-0.0074,-0.0075,-0.012,-0.012,-0.012,-0.012,-0.015,-0.0151,-0.0152,-0.0154,0,0,-0.0155,-0.0155,0,0,0,0,0,0,0,0,-0.0002,-0.0006,-0.003,-0.0033,-0.0037,-0.0086,-0.0071,-0.0099,-0.012,-0.0091,-0.012,-0.012,-0.0124,-0.0127,-0.0143,-0.0156,-0.0157,-0.0155,-0.0156,-0.0156,-0.0156,0,0,0,0,0,0,0,0.0001,-0.0004,-0.0034,-0.0031,-0.0035,-0.0063,-0.0068,-0.0077,-0.0106,-0.0093,-0.0096,-0.0101,-0.0126,-0.0142,-0.0144,-0.0157,-0.0155,-0.0156,-0.0157,-0.0157,-0.0152,-0.0152,0,0,0,0,0,0,0.0016,-0.0001,-0.0031,-0.0035,-0.0017,-0.0063,-0.0069,-0.0072,-0.0107,-0.0113,-0.0101,-0.0103,-0.014,-0.0142,-0.0145,-0.0114,-0.0156,-0.0157,-0.0158,-0.0153,-0.0152,-0.0152,0,0,0,0,0,0,0.0017,0.0014,-0.0029,-0.0018,-0.0026,-0.0063,-0.0066,-0.0073,-0.0085,-0.0113,-0.0118,-0.0104,-0.014,-0.0143,-0.0133,-0.0117,-0.0158,-0.0159,-0.0154,-0.0153,-0.0152,-0.0076,0,0,0,0,0,0,0.0018,0.0015,0.0017,-0.0017,-0.0025,-0.0042,-0.0066,-0.0074,-0.0086,-0.009,-0.0117,-0.0121,-0.0141,-0.0131,-0.0134,-0.0119,-0.0159,-0.0155,-0.0154,-0.0152,-0.0079,-0.0072,-0.0066,0,0,0,0,0,0.002,0.0024,0.0017,0.0013,-0.0021,-0.0041,-0.0048,-0.0078,-0.0086,-0.0089,-0.0095,-0.012,-0.0125,-0.0131,-0.0134,-0.012,-0.0156,-0.0154,-0.0152,-0.0082,-0.0074,-0.0066,0,0,0,0,0,0,0.0037,0.0019,0.0011,0.0008,-0.0011,-0.0048,-0.0054,-0.007,-0.0081,-0.0081,-0.0104,-0.0107,-0.0096,-0.0116,-0.0122,-0.0116,-0.0147,-0.0146,-0.0093,-0.0085,-0.0079,-0.0061,-0.016,0,0,0,0,0,0.0045,0.0046,0.0022,0.002,0.0014,-0.0017,-0.0029,-0.0048,-0.0062,-0.0068,-0.008,-0.0091,-0.0094,-0.0094,-0.0106,-0.0096,-0.0145,-0.0092,-0.0085,-0.0079,-0.0068,-0.0144,-0.0144,-0.0146,-0.0146,-0.0146,0,0,0.0049,0.0041,0.004,0.0024,0.0007,0.0005,-0.0025,-0.0039,-0.0036,-0.0067,-0.0058,-0.0069,-0.0087,-0.0076,-0.0074,-0.0088,-0.0103,-0.0077,-0.0072,-0.0064,-0.0142,-0.0142,-0.0142,-0.0145,-0.0145,-0.0145,0,0,0.0061,0.0055,0.006,0.0052,0.0035,0.002,0.0022,-0.0004,-0.0011,0.0004,-0.0022,-0.0014,-0.0018,-0.0029,-0.0034,0.0002,-0.0068,-0.0009,0.0042,-0.0031,-0.0032,-0.0033,-0.0089,-0.0096,-0.0003,-0.0003,-0.0003,0,0.0067,0.0073,0.0057,0.0062,0.0066,0.0035,0.0046,0.0031,0.0015,0.0019,0.0021,0.0015,0.0008,0.001,0.0035,0.0018,-0.0037,0.0017,-0.0024,-0.0026,-0.0029,-0.0085,-0.0094,0.0001,0.0,-0.0,-0.0001,0,0.0083,0.0091,0.0095,0.0099,0.01,0.0103,0.0091,0.0091,0.0095,0.0085,0.0095,0.0085,0.0082,0.0081,0.0083,0.0064,0.0026,-0.001,-0.0044,-0.0024,-0.0085,-0.0095,0.0006,0.0005,0.0004,0.0003,0,0,0.0093,0.0105,0.0108,0.0126,0.0125,0.0131,0.0142,0.0146,0.0172,0.015,0.0166,0.0179,0.0164,0.0158,0.0136,0.0097,0.0053,0.0052,0.0046,-0.0002,-0.0109,-0.0081,-0.0091,-0.0005,-0.0007,-0.0008,-0.0142,0,0.0113,0.014,0.0144,0.018,0.0195,0.0191,0.0212,0.0212,0.023,0.0234,0.0196,0.0214,0.019,0.0208,0.0155,0.0069,0.0028,0.0093,-0.0121,-0.0127,-0.0105,-0.0101,-0.0071,-0.0183,-0.0153,-0.0154,-0.0156,0,0.0128,0.0149,0.0186,0.0233,0.0243,0.0274,0.0324,0.033,0.0321,0.0345,0.0328,0.029,0.0236,0.0219,0.0059,0.0093,0.0014,-0.0053,-0.0062,-0.0068,-0.0118,-0.02,-0.0204,-0.0174,-0.0172,-0.0171,-0.017,0,0.0146,0.0185,0.0223,0.0236,0.0275,0.0315,0.0342,0.0369,0.0389,0.0407,0.0424,0.0341,0.0297,0.0166,0.0034,0.0037,-0.0155,-0.0183,-0.0235,-0.0235,-0.0263,-0.0262,-0.0283,-0.0283,-0.0283,-0.0282,-0.0282,0,0.0166,0.0198,0.0245,0.0269,0.0335,0.0354,0.0434,0.0463,0.0488,0.0494,0.0471,0.0441,0.0281,0.0145,0.0024,-0.0142,-0.018,-0.0219,-0.0267,-0.0233,-0.0227,-0.0263,-0.0258,-0.0287,-0.0286,-0.0285,-0.0284,0,0.0174,0.0193,0.024,0.0309,0.0342,0.0387,0.0481,0.0526,0.0565,0.0563,0.0561,0.0481,0.0333,0.0176,-0.0035,-0.0143,-0.0298,-0.0338,-0.0269,-0.0303,-0.0327,-0.0317,-0.0422,-0.0422,-0.0422,-0.0422,-0.0422,0,0.018,0.0199,0.0275,0.0311,0.0355,0.0435,0.0484,0.0555,0.0584,0.0565,0.053,0.0435,0.0348,0.0077,-0.0094,-0.0285,-0.0304,-0.0375,-0.0341,-0.0305,-0.0341,-0.0331,-0.0322,-0.0361,-0.0361,-0.0361,-0.036,0,0.0184,0.0206,0.0249,0.0325,0.0392,0.045,0.052,0.0546,0.0572,0.06,0.0539,0.0479,0.0272,0.0094,-0.0107,-0.0239,-0.0338,-0.0371,-0.0397,-0.0305,-0.0252,-0.0286,-0.0278,-0.0357,-0.0358,-0.0358,-0.0358,-0.0358,0.0187,0.0211,0.0261,0.0325,0.0392,0.0424,0.0475,0.053,0.056,0.0572,0.0508,0.0472,0.0293,0.006,-0.013,-0.0295,-0.0305,-0.0374,-0.0374,-0.0375,-0.0319,-0.0266,-0.0363,-0.0363,-0.0364,-0.0364,-0.0364,0,0.018,0.0205,0.0261,0.0316,0.0367,0.0416,0.0463,0.0508,0.0545,0.0575,0.0578,0.0431,0.0275,0.0099,-0.0135,-0.0298,-0.0313,-0.0344,-0.0329,-0.0332,-0.0334,-0.0274,-0.0308,-0.0308,-0.0309,-0.0309,0,0,0.0176,0.0196,0.0206,0.0251,0.0314,0.0377,0.0401,0.048,0.0532,0.0574,0.0595,0.0568,0.0337,0.0186,-0.0032,-0.016,-0.0209,-0.0189,-0.022,-0.018,-0.018,-0.0342,-0.0251,0,0,0,0,0]}],[{"header":{"parameterUnit":"m.s-1","parameterCategory":2,"la1":30.2991,"la2":30.254,"lo1":-89.0895,"lo2":-89.0444,"dy":0.0017,"dx":0.0017,"nx":28,"ny":28,"refTime":"2024-09-02T09:00:00:Z","depth":"4","parameterNumber":2,"parameterNumberName":"U-component_of_CURRENTS"},"data":[0,0,0,0,0,0,0,0,0,0,0,0,0,0,0,0,0,0,0,0,0,0,0,0,0,0,0,0,0,0,0,0,0,0,0,0,0,0,0,0,0,0,0,0,0,0,0,0,0,0,0,0,0,0,0,0,0,0,0.0662,0.0662,0,0.0659,0.0659,0.0659,0.0702,0.0703,0.0704,0.0705,0.0712,0.0712,0.0711,0,0,0,0,0,0,0,0,0,0,0,0,0,0.067,0.067,0.0662,0.0662,0.0661,0.0659,0.0659,0.0659,0.0702,0.0703,0.0704,0.0705,0.0713,0.0712,0.0711,0,0,0,0,0,0,0,0,0,0,0,0,0,0.067,0.067,0.0662,0.068,0.0681,0.0659,0.0659,0.0659,0.0702,0.0703,0.0704,0.0706,0.0713,0.0712,0.0711,0.0679,0,0,0.0708,0.0708,0,0,0,0,0,0,0,0,0.067,0.067,0.0678,0.0679,0.068,0.0679,0.0665,0.0666,0.0701,0.0697,0.0705,0.0706,0.0699,0.07,0.0701,0.068,0.068,0.0708,0.0708,0.0707,0.0707,0,0,0,0,0,0,0,0.067,0.067,0.0664,0.0677,0.0678,0.0676,0.0678,0.0665,0.0694,0.0698,0.07,0.0694,0.0701,0.0701,0.0701,0.068,0.0708,0.0708,0.0707,0.0707,0.0652,0.0651,0,0,0,0,0,0,0.0664,0.067,0.0664,0.0664,0.0674,0.0675,0.0677,0.0681,0.0694,0.0696,0.0693,0.0696,0.0702,0.0702,0.0701,0.0732,0.0707,0.0707,0.0706,0.0653,0.0652,0.0651,0,0,0,0,0,0,0.0664,0.0664,0.0664,0.0664,0.0663,0.0673,0.0677,0.068,0.071,0.0689,0.0693,0.0722,0.0703,0.0703,0.0714,0.073,0.0706,0.0705,0.0654,0.0653,0.0652,0.075,0,0,0,0,0,0,0.0665,0.0664,0.0678,0.0664,0.0663,0.0653,0.0675,0.0679,0.07,0.0705,0.0714,0.0715,0.0704,0.0715,0.0713,0.0728,0.0705,0.0655,0.0654,0.0652,0.0748,0.0752,0.0756,0,0,0,0,0,0.0665,0.0671,0.0678,0.0678,0.0677,0.0652,0.0652,0.0665,0.0701,0.0701,0.0723,0.0716,0.0702,0.0715,0.0712,0.0728,0.0656,0.0654,0.0652,0.0746,0.0751,0.0755,0,0,0,0,0,0,0.0679,0.0675,0.0683,0.0688,0.0673,0.0659,0.067,0.068,0.0699,0.0726,0.0719,0.072,0.074,0.0704,0.0718,0.0698,0.0671,0.0669,0.0743,0.0748,0.0752,0.0778,0.0704,0,0,0,0,0,0.0686,0.0693,0.0678,0.0681,0.0683,0.0685,0.0686,0.0695,0.07,0.0713,0.0718,0.0717,0.0721,0.0715,0.0709,0.0697,0.0675,0.0694,0.0699,0.0703,0.0717,0.0676,0.0679,0.0645,0.0645,0.0645,0,0,0.0693,0.0689,0.0695,0.0684,0.0688,0.069,0.0692,0.07,0.0701,0.0708,0.0731,0.0747,0.0724,0.0728,0.0728,0.0704,0.0704,0.07,0.0705,0.0717,0.0675,0.0678,0.0682,0.0643,0.0643,0.0644,0,0,0.0695,0.071,0.0718,0.0708,0.0707,0.0709,0.0718,0.072,0.0724,0.0736,0.0753,0.0784,0.0763,0.0763,0.0757,0.0768,0.0741,0.075,0.0784,0.0744,0.0748,0.0751,0.0756,0.0758,0.0735,0.0735,0.0735,0,0.0705,0.0704,0.0712,0.0711,0.0703,0.0725,0.0723,0.0727,0.073,0.0757,0.075,0.0799,0.0781,0.0811,0.081,0.0785,0.0765,0.078,0.0755,0.0756,0.0758,0.0762,0.0763,0.074,0.0739,0.0739,0.0738,0,0.0704,0.0708,0.0711,0.0723,0.0722,0.0718,0.072,0.0752,0.0779,0.0797,0.0848,0.0837,0.0872,0.0856,0.0838,0.0845,0.0833,0.0785,0.0757,0.0768,0.0771,0.0771,0.0746,0.0744,0.0743,0.0742,0,0,0.0702,0.0709,0.0711,0.0716,0.0723,0.0725,0.0754,0.0784,0.0843,0.0859,0.0899,0.0924,0.0965,0.0957,0.0942,0.0898,0.0896,0.0843,0.0839,0.0875,0.0841,0.0833,0.0832,0.0839,0.0839,0.0839,0.0851,0,0.0692,0.0697,0.0695,0.0706,0.0712,0.074,0.076,0.081,0.0857,0.0905,0.093,0.0966,0.0981,0.0999,0.0976,0.0906,0.0895,0.09,0.08,0.0798,0.0811,0.083,0.0838,0.085,0.085,0.085,0.085,0,0.0686,0.0687,0.0695,0.0709,0.0717,0.0741,0.0825,0.0835,0.0925,0.0966,0.1052,0.1062,0.107,0.1028,0.0993,0.0993,0.0941,0.0882,0.0879,0.0838,0.0789,0.0823,0.0849,0.0849,0.0849,0.085,0.085,0,0.0684,0.0684,0.0694,0.0693,0.0725,0.076,0.0791,0.0891,0.0911,0.1009,0.105,0.1102,0.1094,0.1045,0.0988,0.0971,0.0908,0.086,0.0829,0.083,0.0793,0.0789,0.0829,0.0829,0.0829,0.0829,0.0829,0,0.0658,0.0662,0.0709,0.0712,0.0744,0.0773,0.0835,0.09,0.0968,0.1006,0.1082,0.1103,0.1083,0.1057,0.0998,0.0941,0.0936,0.0857,0.0828,0.0835,0.0836,0.0795,0.0791,0.083,0.0829,0.0829,0.0829,0,0.0636,0.0661,0.0675,0.0725,0.0742,0.0774,0.0822,0.0869,0.096,0.0997,0.1012,0.1084,0.1079,0.1075,0.0987,0.0953,0.088,0.086,0.092,0.089,0.083,0.0831,0.0824,0.0823,0.0823,0.0823,0.0823,0,0.0615,0.0628,0.0684,0.0695,0.0714,0.0761,0.0786,0.0863,0.0903,0.0977,0.0974,0.1012,0.1054,0.0972,0.0962,0.0917,0.089,0.087,0.082,0.0856,0.0828,0.0829,0.0829,0.0822,0.0822,0.0822,0.0822,0,0.0562,0.0605,0.0616,0.0654,0.0683,0.0702,0.0747,0.0765,0.0843,0.0911,0.0934,0.0941,0.0953,0.0945,0.0947,0.0891,0.0884,0.0867,0.0866,0.0819,0.0854,0.0827,0.0828,0.0821,0.0821,0.0821,0.0821,0,0.0525,0.0528,0.0566,0.0591,0.062,0.0639,0.067,0.0704,0.0742,0.0837,0.0832,0.0885,0.0938,0.0931,0.0904,0.0893,0.0861,0.0806,0.0807,0.0808,0.0797,0.084,0.079,0,0,0,0,0,0.0479,0.0475,0.0492,0.0518,0.0548,0.0575,0.0633,0.0672,0.0745,0.0743,0.0796,0.0811,0.0824,0.085,0.0832,0.0879,0.0853,0.0853,0.0788,0.0817,0.0818,0.0806,0,0,0,0,0,0,0.0446,0.0449,0.0468,0.0457,0.0466,0.0492,0.0535,0.0584,0.0605,0.0684,0.0704,0.0759,0.0789,0.0825,0.0814,0.0821,0.0762,0.089,0.0887,0.0816,0.0817,0.0818,0.0806,0,0,0,0,0]},{"header":{"parameterUnit":"m.s-1","parameterCategory":2,"la1":30.2991,"la2":30.254,"lo1":-89.0895,"lo2":-89.0444,"dy":0.0017,"dx":0.0017,"nx":28,"ny":28,"refTime":"2024-09-02T09:00:00:Z","depth":"4","parameterNumber":3,"parameterNumberName":"V-component_of_CURRENTS"},"data":[0,0,0,0,0,0,0,0,0,0,0,0,0,0,0,0,0,0,0,0,0,0,0,0,0,0,0,0,0,0,0,0,0,0,0,0,0,0,0,0,0,0,0,0,0,0,0,0,0,0,0,0,0,0,0,0,0,0,0.0017,0.0017,0,-0.0023,-0.0024,-0.0024,-0.0044,-0.0044,-0.0044,-0.0044,-0.0144,-0.0147,-0.0149,0,0,0,0,0,0,0,0,0,0,0,0,0,0.0028,0.0028,0.0017,0.0016,0.0016,-0.0023,-0.0024,-0.0025,-0.0044,-0.0044,-0.0044,-0.0043,-0.0143,-0.0146,-0.015,0,0,0,0,0,0,0,0,0,0,0,0,0,0.0007,0.0028,0.0017,0.0003,0.0002,-0.0023,-0.0024,-0.0025,-0.0044,-0.0044,-0.0044,-0.0043,-0.0142,-0.0146,-0.015,-0.0182,0,0,-0.0163,-0.0165,0,0,0,0,0,0,0,0,0.0008,0.0007,0.0006,0.0004,0.0002,-0.0027,-0.0057,-0.008,-0.0044,-0.0029,-0.0044,-0.0043,-0.0109,-0.0116,-0.0126,-0.0187,-0.0191,-0.0164,-0.0166,-0.0168,-0.0169,0,0,0,0,0,0,0,0.001,0.0008,-0.0001,0.0005,0.0003,-0.0017,-0.002,-0.0061,-0.0073,-0.003,-0.0031,-0.0033,-0.0111,-0.0122,-0.0129,-0.0193,-0.0164,-0.0167,-0.017,-0.0172,-0.0293,-0.0294,0,0,0,0,0,0,0.0021,0.001,0.0,-0.0002,0.0009,-0.0017,-0.002,-0.0019,-0.0071,-0.0078,-0.0033,-0.0033,-0.0115,-0.0124,-0.0133,-0.02,-0.0168,-0.0172,-0.0175,-0.0293,-0.0293,-0.0294,0,0,0,0,0,0,0.0022,0.0021,0.0002,0.0004,0.0001,-0.0017,-0.0016,-0.002,-0.0032,-0.0072,-0.008,-0.0041,-0.0115,-0.0127,-0.0181,-0.0203,-0.0174,-0.0178,-0.0292,-0.0293,-0.0294,-0.0319,0,0,0,0,0,0,0.0022,0.0021,0.0023,0.0005,0.0001,-0.0011,-0.0017,-0.0021,-0.0032,-0.0034,-0.0082,-0.009,-0.0116,-0.0175,-0.0185,-0.0209,-0.0181,-0.0291,-0.0292,-0.0293,-0.0317,-0.0321,-0.0324,0,0,0,0,0,0.0023,0.0025,0.0024,0.0022,0.0005,-0.0011,-0.0016,-0.0029,-0.0033,-0.0039,-0.008,-0.0089,-0.0189,-0.0179,-0.0192,-0.0217,-0.029,-0.0292,-0.0293,-0.0316,-0.032,-0.0324,0,0,0,0,0,0,0.0028,0.0023,0.0021,0.0021,0.0008,-0.0014,-0.002,-0.003,-0.0066,-0.0072,-0.0109,-0.0121,-0.018,-0.019,-0.0178,-0.0252,-0.0237,-0.0241,-0.025,-0.0254,-0.0257,-0.0239,-0.0185,0,0,0,0,0,0.0032,0.0034,0.0022,0.0021,0.0016,-0.0003,-0.0012,-0.0022,-0.0053,-0.0067,-0.0103,-0.0143,-0.0196,-0.0217,-0.0261,-0.0303,-0.0299,-0.0322,-0.0325,-0.0328,-0.032,-0.0353,-0.0359,-0.0299,-0.0299,-0.0299,0,0,0.0034,0.0031,0.0032,0.0022,0.0011,-0.0007,-0.0008,-0.0022,-0.0044,-0.0076,-0.0121,-0.0165,-0.0212,-0.0267,-0.0291,-0.0277,-0.0338,-0.033,-0.0332,-0.0322,-0.0355,-0.0361,-0.0366,-0.03,-0.03,-0.03,0,0,0.0035,0.0036,0.0036,0.0024,0.001,-0.0007,-0.0011,-0.0036,-0.0053,-0.01,-0.0137,-0.0187,-0.0252,-0.0292,-0.0322,-0.0365,-0.0363,-0.0377,-0.0374,-0.0407,-0.0412,-0.0416,-0.0397,-0.04,-0.0368,-0.0368,-0.0368,0,0.0037,0.0035,0.0031,0.0023,0.0011,-0.0008,-0.0022,-0.0047,-0.009,-0.011,-0.0115,-0.0225,-0.0264,-0.0339,-0.0354,-0.0374,-0.0373,-0.0359,-0.0411,-0.0416,-0.042,-0.0399,-0.0402,-0.0369,-0.0369,-0.0369,-0.0369,0,0.0033,0.0028,0.0025,0.0007,-0.0008,-0.0022,-0.0052,-0.0077,-0.0101,-0.0127,-0.0197,-0.0255,-0.031,-0.0338,-0.0364,-0.0419,-0.0402,-0.0421,-0.0401,-0.0427,-0.0404,-0.0406,-0.0371,-0.0371,-0.037,-0.037,0,0,0.004,0.0027,0.0025,0.0016,-0.0016,-0.0029,-0.0069,-0.0108,-0.0131,-0.018,-0.0216,-0.031,-0.0326,-0.0359,-0.0399,-0.0428,-0.0456,-0.0432,-0.0433,-0.041,-0.0493,-0.0464,-0.0463,-0.0492,-0.0493,-0.0494,-0.0456,0,0.0035,0.0025,0.0014,-0.0012,-0.0023,-0.0052,-0.0083,-0.0122,-0.016,-0.0199,-0.0257,-0.031,-0.0338,-0.0366,-0.0404,-0.0455,-0.0467,-0.0462,-0.0472,-0.0471,-0.0442,-0.0467,-0.0497,-0.0458,-0.0458,-0.0459,-0.0459,0,0.0029,0.0024,0.0011,-0.0014,-0.0021,-0.0043,-0.009,-0.0119,-0.0178,-0.0203,-0.0259,-0.03,-0.0361,-0.0375,-0.0448,-0.0445,-0.0462,-0.0489,-0.0489,-0.0454,-0.0447,-0.0432,-0.0463,-0.0463,-0.0462,-0.0462,-0.0462,0,0.0035,0.0016,0.0009,-0.0,-0.0031,-0.0047,-0.0069,-0.0121,-0.0135,-0.0201,-0.0211,-0.0297,-0.0318,-0.0382,-0.0425,-0.0443,-0.0483,-0.0514,-0.0493,-0.0489,-0.0514,-0.0509,-0.0549,-0.0549,-0.0549,-0.0549,-0.055,0,0.003,0.002,0.0015,0.0009,-0.0003,-0.003,-0.0052,-0.0086,-0.012,-0.0125,-0.0202,-0.0215,-0.0323,-0.0358,-0.0412,-0.0445,-0.0467,-0.0488,-0.0489,-0.0521,-0.0518,-0.0513,-0.051,-0.0548,-0.0548,-0.0549,-0.0549,0,0.0028,0.0027,0.0018,0.0002,0.0001,-0.0009,-0.0022,-0.0033,-0.0065,-0.0072,-0.0083,-0.0147,-0.0199,-0.0281,-0.0365,-0.0403,-0.0456,-0.0454,-0.0437,-0.0438,-0.0438,-0.0436,-0.0442,-0.0441,-0.044,-0.0439,-0.0439,0,0.0025,0.0025,0.0024,0.003,0.0023,0.0015,0.0018,-0.0006,-0.0001,-0.0021,-0.0009,-0.0061,-0.0109,-0.0183,-0.0291,-0.0381,-0.0399,-0.0407,-0.0473,-0.0432,-0.0433,-0.0432,-0.0432,-0.0437,-0.0437,-0.0437,-0.0436,0,0.002,0.0024,0.0024,0.0046,0.0054,0.0064,0.0074,0.0091,0.0082,0.0056,0.0065,0.0002,-0.0045,-0.0153,-0.0211,-0.0286,-0.0409,-0.0398,-0.0402,-0.0464,-0.0426,-0.0428,-0.0428,-0.0433,-0.0434,-0.0434,-0.0434,0,0.0023,0.0024,0.0043,0.0059,0.0081,0.0119,0.0113,0.0138,0.0146,0.0137,0.0145,0.0065,0.0011,-0.0099,-0.016,-0.0231,-0.027,-0.0299,-0.0308,-0.0313,-0.0307,-0.0242,-0.019,0,0,0,0,0,0.0031,0.0044,0.0058,0.0087,0.0114,0.0132,0.0161,0.016,0.0167,0.0189,0.017,0.0125,0.0016,-0.0042,-0.0107,-0.0166,-0.0293,-0.0245,-0.0333,-0.0416,-0.0419,-0.0436,0,0,0,0,0,0,0.0038,0.0055,0.0063,0.012,0.0145,0.0184,0.0205,0.0206,0.022,0.021,0.0155,0.0114,0.0004,0.0058,-0.0106,-0.0132,-0.0195,-0.0305,-0.0306,-0.0413,-0.0417,-0.042,-0.0438,0,0,0,0,0]}]]